• In Czech Republic
  • List of Countries
  • For 7 days
  • Water Temperature
  • Satellite Maps
  • Weather Map
  • Weather Widgets
  • user-avatar
    Login

    Hourly Weather Greenock

    Today, 21 October, Sunday

    Time Temperature Precipitation Wind Pressure Humidity
    00:00 +14°C° 0.1 mm 5 mps 754 mmHg 96%
    01:00 +14°C° 0.1 mm 5 mps 753 mmHg 96%
    02:00 +14°C° 0.1 mm 5 mps 753 mmHg 96%
    03:00 +14°C° 0.1 mm 5 mps 752 mmHg 96%
    04:00 +14°C° 0.4 mm 6 mps 752 mmHg 95%
    05:00 +14°C° 0.4 mm 6 mps 752 mmHg 95%
    06:00 +14°C° 0.4 mm 6 mps 752 mmHg 94%
    07:00 +13°C° 0.4 mm 6 mps 753 mmHg 92%
    08:00 +10°C° 0.4 mm 6 mps 753 mmHg 90%
    09:00 +9°C° 0.4 mm 6 mps 754 mmHg 87%
    10:00 +9°C° 0.2 mm 6 mps 754 mmHg 87%
    11:00 +9°C° 0.2 mm 6 mps 755 mmHg 86%
    12:00 +9°C° 0.2 mm 6 mps 756 mmHg 86%
    13:00 +9°C° 0 mm 6 mps 756 mmHg 82%
    14:00 +9°C° 0 mm 7 mps 757 mmHg 77%
    15:00 +9°C° 0 mm 7 mps 757 mmHg 73%
    16:00 +8°C° 0 mm 7 mps 758 mmHg 74%
    17:00 +6°C° 0 mm 7 mps 758 mmHg 74%
    18:00 +5°C° 0 mm 6 mps 759 mmHg 75%
    19:00 +5°C° 0 mm 6 mps 759 mmHg 74%
    20:00 +5°C° 0 mm 6 mps 760 mmHg 73%
    21:00 +4°C° 0 mm 6 mps 760 mmHg 72%
    22:00 +4°C° 0 mm 6 mps 761 mmHg 72%
    23:00 +4°C° 0 mm 6 mps 761 mmHg 72%

    Tomorrow, 22 October, Monday

    Time Temperature Precipitation Wind Pressure Humidity
    00:00 +4°C° 0 mm 6 mps 762 mmHg 72%
    01:00 +4°C° 0 mm 6 mps 762 mmHg 73%
    02:00 +5°C° 0 mm 5 mps 762 mmHg 74%
    03:00 +5°C° 0 mm 5 mps 763 mmHg 74%
    04:00 +5°C° 0 mm 5 mps 763 mmHg 76%
    05:00 +5°C° 0 mm 5 mps 763 mmHg 77%
    06:00 +5°C° 0 mm 5 mps 764 mmHg 79%
    07:00 +6°C° 0 mm 5 mps 764 mmHg 78%
    08:00 +7°C° 0 mm 5 mps 764 mmHg 78%
    09:00 +7°C° 0 mm 5 mps 764 mmHg 77%
    10:00 +8°C° 0 mm 6 mps 764 mmHg 76%
    11:00 +8°C° 0 mm 7 mps 764 mmHg 76%
    12:00 +9°C° 0 mm 7 mps 764 mmHg 75%
    13:00 +9°C° 0 mm 8 mps 763 mmHg 77%
    14:00 +9°C° 0 mm 8 mps 763 mmHg 79%
    15:00 +9°C° 0 mm 8 mps 763 mmHg 80%
    16:00 +8°C° 0.1 mm 9 mps 762 mmHg 81%
    17:00 +8°C° 0.1 mm 9 mps 762 mmHg 82%
    18:00 +8°C° 0.1 mm 9 mps 762 mmHg 83%
    19:00 +8°C° 0.1 mm 9 mps 762 mmHg 84%
    20:00 +8°C° 0.1 mm 9 mps 762 mmHg 84%
    21:00 +9°C° 0.1 mm 8 mps 761 mmHg 84%
    22:00 +8°C° 0 mm 9 mps 761 mmHg 84%
    23:00 +8°C° 0 mm 9 mps 761 mmHg 84%

    Day after tomorrow, 23 October, Tuesday

    Time Temperature Precipitation Wind Pressure Humidity
    00:00 +8°C° 0 mm 9 mps 760 mmHg 84%
    01:00 +8°C° 0.1 mm 9 mps 760 mmHg 85%
    02:00 +8°C° 0.1 mm 9 mps 759 mmHg 85%
    03:00 +8°C° 0.1 mm 9 mps 759 mmHg 85%
    04:00 +8°C° 0.1 mm 9 mps 759 mmHg 85%
    05:00 +8°C° 0.1 mm 9 mps 759 mmHg 84%
    06:00 +8°C° 0.1 mm 9 mps 758 mmHg 84%
    07:00 +8°C° 0.2 mm 9 mps 758 mmHg 86%
    08:00 +10°C° 0.2 mm 8 mps 758 mmHg 87%
    09:00 +10°C° 0.2 mm 8 mps 758 mmHg 89%
    10:00 +10°C° 0.3 mm 8 mps 758 mmHg 90%
    11:00 +10°C° 0.3 mm 8 mps 758 mmHg 91%
    12:00 +10°C° 0.3 mm 8 mps 758 mmHg 92%
    13:00 +11°C° 0.3 mm 7 mps 758 mmHg 92%
    14:00 +11°C° 0.3 mm 7 mps 758 mmHg 93%
    15:00 +11°C° 0.3 mm 7 mps 758 mmHg 93%
    16:00 +11°C° 0.1 mm 6 mps 758 mmHg 93%
    17:00 +11°C° 0.1 mm 6 mps 758 mmHg 94%
    18:00 +11°C° 0.1 mm 6 mps 758 mmHg 94%
    19:00 +11°C° 0.1 mm 6 mps 759 mmHg 94%
    20:00 +11°C° 0.1 mm 6 mps 759 mmHg 94%
    21:00 +11°C° 0.1 mm 6 mps 759 mmHg 94%
    22:00 +11°C° 0 mm 6 mps 759 mmHg 94%
    23:00 +11°C° 0 mm 6 mps 759 mmHg 93%

    24 October, Wednesday

    Time Temperature Precipitation Wind Pressure Humidity
    00:00 +12°C° 0 mm 5 mps 759 mmHg 93%
    01:00 +12°C° 0 mm 5 mps 759 mmHg 94%
    02:00 +12°C° 0 mm 5 mps 759 mmHg 94%
    03:00 +12°C° 0 mm 5 mps 759 mmHg 94%
    04:00 +12°C° 0 mm 5 mps 759 mmHg 94%
    05:00 +10°C° 0 mm 5 mps 759 mmHg 93%
    06:00 +10°C° 0 mm 5 mps 759 mmHg 93%
    07:00 +10°C° 0 mm 5 mps 759 mmHg 92%
    08:00 +10°C° 0 mm 5 mps 759 mmHg 91%
    09:00 +9°C° 0 mm 5 mps 760 mmHg 89%
    10:00 +9°C° 0 mm 5 mps 759 mmHg 87%
    11:00 +9°C° 0 mm 5 mps 759 mmHg 86%
    12:00 +9°C° 0 mm 6 mps 759 mmHg 84%
    13:00 +9°C° 0 mm 6 mps 759 mmHg 84%
    14:00 +9°C° 0 mm 6 mps 759 mmHg 83%
    15:00 +9°C° 0 mm 6 mps 758 mmHg 83%
    16:00 +8°C° 0 mm 6 mps 758 mmHg 85%
    17:00 +8°C° 0 mm 5 mps 758 mmHg 86%
    18:00 +8°C° 0 mm 5 mps 758 mmHg 87%
    19:00 +8°C° 0 mm 5 mps 758 mmHg 87%
    20:00 +8°C° 0 mm 5 mps 758 mmHg 87%
    21:00 +8°C° 0 mm 5 mps 758 mmHg 87%
    22:00 +8°C° 0 mm 5 mps 757 mmHg 87%
    23:00 +8°C° 0 mm 5 mps 757 mmHg 87%

    25 October, Thursday

    Time Temperature Precipitation Wind Pressure Humidity
    00:00 +8°C° 0 mm 5 mps 757 mmHg 87%
    01:00 +8°C° 0 mm 5 mps 756 mmHg 87%
    02:00 +8°C° 0 mm 5 mps 756 mmHg 87%
    03:00 +8°C° 0 mm 5 mps 755 mmHg 87%
    04:00 +8°C° 0 mm 5 mps 755 mmHg 87%
    05:00 +8°C° 0 mm 5 mps 754 mmHg 87%
    06:00 +8°C° 0 mm 4 mps 754 mmHg 88%
    07:00 +8°C° 0 mm 5 mps 754 mmHg 87%
    08:00 +8°C° 0 mm 5 mps 753 mmHg 86%
    09:00 +9°C° 0 mm 5 mps 753 mmHg 85%
    10:00 +9°C° 0.1 mm 5 mps 752 mmHg 84%
    11:00 +9°C° 0.1 mm 5 mps 752 mmHg 83%
    12:00 +9°C° 0.1 mm 5 mps 751 mmHg 82%
    13:00 +9°C° 0.1 mm 5 mps 751 mmHg 83%
    14:00 +9°C° 0.1 mm 5 mps 750 mmHg 84%
    15:00 +9°C° 0.1 mm 5 mps 749 mmHg 84%
    16:00 +8°C° 0.1 mm 5 mps 749 mmHg 86%
    17:00 +8°C° 0.1 mm 5 mps 748 mmHg 87%
    18:00 +8°C° 0.1 mm 5 mps 747 mmHg 88%
    19:00 +8°C° 0.2 mm 5 mps 747 mmHg 89%
    20:00 +8°C° 0.2 mm 5 mps 746 mmHg 89%
    21:00 +8°C° 0.2 mm 5 mps 746 mmHg 90%
    22:00 +7°C° 0.3 mm 6 mps 746 mmHg 89%
    23:00 +7°C° 0.3 mm 6 mps 746 mmHg 87%

    26 October, Friday

    Time Temperature Precipitation Wind Pressure Humidity
    00:00 +5°C° 0.3 mm 6 mps 746 mmHg 86%
    01:00 +6°C° 0 mm 5 mps 746 mmHg 86%
    02:00 +5°C° 0 mm 5 mps 746 mmHg 85%
    03:00 +3°C° 0 mm 5 mps 746 mmHg 85%
    04:00 +4°C° 0 mm 4 mps 746 mmHg 85%
    05:00 +3°C° 0 mm 4 mps 746 mmHg 84%
    06:00 +3°C° 0 mm 4 mps 747 mmHg 84%
    07:00 +3°C° 0 mm 4 mps 747 mmHg 82%
    08:00 +4°C° 0 mm 4 mps 747 mmHg 80%
    09:00 +3°C° 0 mm 5 mps 748 mmHg 78%
    10:00 +5°C° 0 mm 5 mps 748 mmHg 74%
    11:00 +5°C° 0 mm 6 mps 748 mmHg 70%
    12:00 +5°C° 0 mm 6 mps 749 mmHg 66%
    13:00 +5°C° 0.1 mm 7 mps 749 mmHg 65%
    14:00 +5°C° 0.1 mm 7 mps 749 mmHg 63%
    15:00 +4°C° 0.1 mm 7 mps 749 mmHg 62%
    16:00 +3°C° 0 mm 7 mps 749 mmHg 64%
    17:00 +2°C° 0 mm 7 mps 749 mmHg 66%
    18:00 +1°C° 0 mm 6 mps 749 mmHg 68%
    19:00 0°C° 0 mm 7 mps 749 mmHg 69%
    20:00 0°C° 0 mm 7 mps 749 mmHg 70%
    21:00 0°C° 0 mm 7 mps 749 mmHg 72%
    22:00 +1°C° 0 mm 6 mps 749 mmHg 72%
    23:00 +1°C° 0 mm 6 mps 749 mmHg 73%
    Show more